Notices

What's New in latest Release from April 7th, 2021:

- Updated Glossary, including Speed of Maximum Gust, and Total Hourly Precipitation

- Updated national and regional climate services offices contacts and prices information

- Addition of station inventory lists for 1981-2010, 1971-2000, and 1961-1990 Normals.

If you haven't already, please take our survey and provide feedback about our website: https://eccc.sondage-survey.ca/f/LanguageSelection.aspx?s=442ca660-fcf1-47c0-95a9-59707d6fd709

Hourly Data Report for July 05, 2018

TORONTO CITY
ONTARIO
Current Station Operator: ECCC - MSC

43°40'00.000" N
79°24'00.000" W
112.50 m
6158355
71508
XTO

Download Data

Hourly Data (July 2018)
Hourly Data Report for July 5, 2018
TIME
LST
Temp Definition
°C
Dew Point Definition
°C
Rel Hum Definition
%
Precip. Amount Definition
mm

Wind Dir Definition
10's deg

Wind Spd Definition
km/h
Visibility Definition
km
Stn Press Definition
kPa
Hmdx Definition


Wind Chill Definition


Weather Definition


00:00 24.7 16.0 58 0.0 LegendMM LegendMM   100.92 29   LegendNANA
01:00 24.2 16.4 62 0.0 LegendMM LegendMM   100.90 29   LegendNANA
02:00 23.8 16.5 64 0.0 LegendMM LegendMM   100.89 29   LegendNANA
03:00 23.4 16.7 66 0.0 LegendMM LegendMM   100.88 28   LegendNANA
04:00 23.1 16.8 68 0.0 LegendMM LegendMM   100.90 28   LegendNANA
05:00 23.2 17.0 68 0.0 LegendMM LegendMM   100.93 28   LegendNANA
06:00 23.6 17.7 70 0.0 LegendMM LegendMM   100.94 29   LegendNANA
07:00 25.7 16.8 58 0.0 LegendMM LegendMM   100.98 31   LegendNANA
08:00 27.0 17.3 55 0.0 LegendMM LegendMM   100.95 32   LegendNANA
09:00 28.1 15.9 47 0.0 LegendMM LegendMM   100.87 33   LegendNANA
10:00 28.7 19.5 58 0.0 LegendMM LegendMM   100.84 36   LegendNANA
11:00 29.7 19.8 55 0.0 LegendMM LegendMM   100.80 37   LegendNANA
12:00 31.1 19.6 50 0.0 LegendMM LegendMM   100.71 38   LegendNANA
13:00 31.5 18.7 47 0.0 LegendMM LegendMM   100.64 38   LegendNANA
14:00 32.0 20.1 49 0.0 LegendMM LegendMM   100.53 40   LegendNANA
15:00 32.1 19.2 46 0.0 LegendMM LegendMM   100.43 39   LegendNANA
16:00 30.6 20.3 54 0.0 LegendMM LegendMM   100.40 38   LegendNANA
17:00 27.5 20.6 66 0.3 LegendMM LegendMM   100.42 36   LegendNANA
18:00 26.6 20.4 69 0.0 LegendMM LegendMM   100.39 35   LegendNANA
19:00 26.0 20.2 70 0.0 LegendMM LegendMM   100.49 34   LegendNANA
20:00 23.8 20.5 82 1.5 LegendMM LegendMM   100.48 32   LegendNANA
21:00 23.1 20.8 87 4.9 LegendMM LegendMM   100.41 31   LegendNANA
22:00 23.5 21.2 87 0.0 LegendMM LegendMM   100.41 32   LegendNANA
23:00 23.9 21.4 86 0.0 LegendMM LegendMM   100.40 33   LegendNANA

Notes on Data Quality.

Legend

  • E = Estimated
  • M = Missing
  • NA = Not Available*
  • [empty] = Indicates an unobserved value
Date modified: